Regional Weather Roundup
Issued by NWS Charleston, SC

Current Version | Previous Version | Text Only | Print | Product List | Glossary Off
Versions: 1 2 3 4 5 6 7 8 9 10 11 12 13 14 15 16 17 18 19 20 21 22 23 24 25 26 27 28 29 30 31 32 33 34 35 36 37 38 39 40 41 42 43 44 45 46 47 48 49 50
653 ASUS42 KCHS 280313 RWRCHS REGIONAL WEATHER ROUNDUP NATIONAL WEATHER SERVICE CHARLESTON SC 1100 PM EDT WED JUL 27 2016 NOTE: "FAIR" INDICATES FEW OR NO CLOUDS BELOW 12,000 FEET WITH NO SIGNIFICANT WEATHER AND/OR OBSTRUCTIONS TO VISIBILITY. NOT ALL STATIONS ARE QUALITY CONTROLLED. USE DATA WITH CAUTION... ESPECIALLY DEWPOINT OBSERVATIONS. SCZ027-030-031-034>040-042>050-280400- ...SOUTHEAST SOUTH CAROLINA... CITY SKY/WX TMP DP RH WIND PRES REMARKS N CHARLESTON CLEAR 84 78 82 S7 29.99R HX 95 WATERFRONT PRK N/A 85 80 85 SW6 29.97R HX 99 MOUNT PLEASANT FAIR 84 79 84 CALM 29.99S HX 96 JOHNS ISLAND FAIR 86 81 84 SW6 30.00R HX 102 PINOPOLIS N/A 84 79 84 VRB3 29.91R HX 96 MONCKS CORNER FAIR 81 75 83 S5 29.98S SUMMERVILLE NOT AVBL BEAUFORT MCAS CLEAR 85 77 77 S7 30.00R HX 95 BEAUFORT ARPT FAIR 86 77 74 SW6 29.99R HX 97 HILTON HEAD IS CLEAR 86 79 79 VRB7G14 30.01S HX 99 WALTERBORO CLEAR 84 75 74 S6 30.00R HX 92 ALLENDALE FAIR 84 73 70 CALM 29.98S HX 91 ...SOUTHERN MIDLANDS AND PEE DEE... CITY SKY/WX TMP DP RH WIND PRES REMARKS GEORGETOWN NOT AVBL KINGSTREE FAIR 79 73 83 CALM 29.97S ORANGEBURG CLEAR 82 73 74 SW5 29.99R BARNWELL NOT AVBL AIKEN FAIR 81 68 65 SW3 30.03R MANNING FAIR 81 73 78 CALM 29.97S COLUMBIA CLEAR 87 70 56 W5 29.97R HX 92 SUMTER CLEAR 86 72 63 S3 29.95S HX 92 FLORENCE CLEAR 85 75 72 S7 29.96S HX 93 MYRTLE BEACH NOT AVBL N MYRTLE BEACH CLEAR 84 80 88 SW9 29.98R HX 97 $$ GAZ063-065-086>088-099>101-113>116-118-119-134>141-150-280400- ...SOUTHEAST GEORGIA... CITY SKY/WX TMP DP RH WIND PRES REMARKS SAVANNAH ARPT PTCLDY 85 76 74 S9 30.00R HX 94 HUNTER AAF CLEAR 84 79 84 S7 29.98R HX 97 FORT STEWART CLEAR 82 72 71 SW2 29.99R STATESBORO CLEAR 84 75 74 CALM 30.00S HX 92 SYLVANIA NOT AVBL CLAXTON FAIR 80 75 84 CALM 30.01R ...CSRA...CENTRAL AND FAR SOUTHEAST GEORGIA... CITY SKY/WX TMP DP RH WIND PRES REMARKS THOMSON NOT AVBL AUGUSTA-BUSH CLEAR 85 70 60 SW5 29.98R AUGUSTA-DANIEL CLEAR 88 69 53 SW3 30.00R HX 92 SWAINSBORO FAIR 84 70 61 CALM 30.02R VIDALIA CLEAR 82 70 65 SW3 30.02S EASTMAN FAIR 83 62 49 CALM 30.05R HAZLEHURST FAIR 83 74 73 CALM 30.02S HX 90 ALMA CLEAR 82 70 66 SW3 30.03R WAYCROSS CLEAR 85 74 68 SW3 30.03S HX 93 JESUP FAIR 82 77 83 CALM 30.03R HX 91 BAXLEY FAIR 82 75 78 CALM 30.03R BRUNSWICK CLEAR 86 79 79 SW7 30.04R HX 99 SAINT SIMONS CLEAR 85 77 77 S8 30.03R HX 95 $$ SCZ027-028-034-036>038-045-046-048>050-GAZ119-141-280400- ...LAKE AND SUPPLEMENTAL COASTAL OBSERVATIONS... STATION/POSITION TIME TEMP WIND PRES WAVE SWELL AIR SEA DIR/SP/G HT/PER HT/PER/DIR (UTC) (F) (DEG/KT/KT) (MB) (FT/S) (FT/S/D) WINYAH BAY 0145 85 240/ 6 1014.0 LAKE MURRAY 0200 90 240/ 9/ 13 1013.9R ACE BASIN NERRS NOT AVBL FORT PULASKI 0200 88 N/A SAPELO ISLAND 0200 86 190/ 10 1016.0S $$ ANZ835-935-AMZ111-154-330-350-352-354-370-450-454-472-280400- ...C-MAN AND BUOY OBSERVATIONS... STATION/POSITION TIME TEMP WIND PRES WAVE SWELL AIR SEA DIR/SP/G HT/PER HT/PER/DIR (UTC) (F) (DEG/KT/KT) (MB) (FT/S) (FT/S/D) BUOY 41004 0250 86 86 220/ 16/ 17 1015.2R 3/ 4 2/170/ 8 BUOY 41008 0250 87 87 180/ 16/ 19 1016.3R 2/ 4 FOLLY BEACH CMAN 0300 86 220/ 12/ 15 1015.9R CAPERS NEARSHORE 0208 85 84 230/ 14/ 17 1015.2R FRIPP NEARSHORE 0208 87 87 210/ 16/ 21 1014.7R STATION/POSITION TIME TEMP WIND PRES WAVE SWELL AIR SEA DIR/SP/G HT/PER HT/PER/DIR (UTC) (F) (DEG/KT/KT) (MB) (FT/S) (FT/S/D) 5E ST. MARYS GA 0301 86 N/A 3/ 4 FRYING PAN BUOY 0200 85 85 230/ 12/ 16 1015.3R BUOY 41025 0250 83 85 260/ 14/ 16 1013.8S 3/ 6 2/130/ 8 CAPE LOOKOUT NC 0200 76 10/ 25/ 30 1016.5R BUOY 41002 0250 84 85 260/ 12/ 14 1016.5R 3/ 6 2/260/ 6 BUOY 41010 0220 86 87 170/ 6/ 8 1018.5R ST AUGUSTINE FL 0300 82 87 200/ 5/ 6 1018.7R $$

USA.gov is the U.S. government's official web portal to all federal, state and local government web resources and services.